Regional Weather Roundup
Issued by NWS

Home | Current Version | Previous Version | Graphics & Text | Print | Product List | Glossary On
Versions: 1 2 3 4 5 6 7 8 9 10 11 12 13 14 15 16 17 18 19 20 21 22 23 24 25 26 27 28 29 30 31 32 33 34 35 36 37 38 39 40 41 42 43 44 45 46 47 48 49 50
000
ASUS43 KLOT 292212
RWRIL

ILLINOIS REGIONAL WEATHER ROUNDUP
NATIONAL WEATHER SERVICE CHICAGO/ROMEOVILLE IL
500 PM CDT MON JUN 29 2015

NOTE: "FAIR" INDICATES FEW OR NO CLOUDS BELOW 12,000 FEET WITH NO
SIGNIFICANT WEATHER AND/OR OBSTRUCTIONS TO VISIBILITY.

* THESE STATIONS ARE NOT UNDER NWS QUALITY CONTROL. THEY ALSO MAY NOT
  REPORT WEATHER SUCH AS PRECIPITATION OR FOG.

ILZ001-002-007-009-015-016-024-292300-
NORTHWEST ILLINOIS

CITY           SKY/WX    TMP DP  RH WIND       PRES   REMARKS
MOLINE         MOSUNNY   81  65  58 W10       29.80F HX  83
STERLING*      MOSUNNY   79  66  65 W9        29.79S HX  81
SAVANNA*       SUNNY     80  62  53 W7        29.79S HX  81
$$

ILZ003-004-008-010-011-017-018-292300-
NORTH CENTRAL ILLINOIS

CITY           SKY/WX    TMP DP  RH WIND       PRES   REMARKS
ROCKFORD       PTSUNNY   76  64  66 SE3       29.80F
FREEPORT*      PTSUNNY   73  65  76 NW5       29.81R
ROCHELLE*      RAIN      70  67  89 NW3       29.81R
DE KALB*       CLOUDY    68  63  86 NE7       29.82S
PERU*          PTSUNNY   78  63  59 W8        29.80S
$$

ILZ005-006-012>014-019>023-292300-
NORTHEAST ILLINOIS

CITY           SKY/WX    TMP DP  RH WIND       PRES   REMARKS
CHICAGO-OHARE  LGT RAIN  68  64  87 CALM      29.80S FOG
CHICAGO-MIDWAY CLOUDY    73  65  75 SW3       29.79F
AURORA         CLOUDY    71  63  75 N3        29.81S
LANSING*       PTSUNNY   70  62  77 S3        29.80F
JOLIET*        PTSUNNY   70  67  89 CALM      29.81R
WAUKEGAN       CLOUDY    67  62  84 SE8       29.80S
DUPAGE AIRPORT TSTM      67  61  81 SW12G29   29.81R VSB 1/4
KANKAKEE*      LGT RAIN  68  65  89 E5        29.81F
WHEELING       CLOUDY    70  63  78 SW5       29.81S
MORRIS*        HVY RAIN  67  65  93 SW3       29.80R
ROMEOVILLE*    CLOUDY    68  63  83 CALM      29.81R
NORTHERLY ISL    N/A     66  62  87 NE2         N/A
$$

LMZ740>746-292300-
SOUTHERN LAKE MICHIGAN

STATION/POSITION SKY/WX   TEMP    WIND        PRES    VSBY  WAVE
                          AIR SEA DIR/SP/G                  HT/PER
                          (F)     (DEG/KT/KT) (MB)    (MI)  (FT/S)
HARRISON CRIB              65     140/  6/  7   N/A
BURNHAM HARBOR             66      70/  2/  3   N/A
CALUMET HARBOR             67      40/  4/  5   N/A
BURNS HARBOR               71     200/  6/  8 1009.8F
MICHIGAN CITY              68     310/  7/  8   N/A
MICHIGAN CITY 6N           67 67   10/  4/  6   N/A           0
ST. JOSEPH                 67 65                N/A           0
$$

ILZ025>027-034>036-040-047-049-050-058-095>099-292300-
WEST-CENTRAL ILLINOIS

CITY           SKY/WX    TMP DP  RH WIND       PRES   REMARKS
QUINCY         PTSUNNY   71  62  73 NE13      29.87R
GALESBURG*     SUNNY     79  66  64 W7        29.83S HX  81
MACOMB*        MOSUNNY   79  67  65 W3        29.85S HX  81
JACKSONVILLE*  MOSUNNY   78  68  71 CALM      29.84S HX  80
PITTSFIELD*    MOSUNNY   81  66  60 W5        29.86S HX  83
$$

ILZ028>032-037-038-041>044-048-051>054-059>061-292300-
CENTRAL ILLINOIS

CITY           SKY/WX    TMP DP  RH WIND       PRES   REMARKS
PONTIAC        MOSUNNY   77  66  69 W14       29.80S
BLOOMINGTON    MOSUNNY   79  65  62 W15G21    29.82F HX  81
DECATUR        PTSUNNY   78  64  61 W10       29.83S HX  80
PEORIA         SUNNY     80  63  55 W8G18     29.81F HX  81
LACON*         PTSUNNY   78  62  58 W9        29.80S
LINCOLN*       SUNNY     79  63  56 W6        29.82S HX  81
SPRINGFIELD    SUNNY     79  65  62 W12       29.84F HX  81
TAYLORVILLE    MOSUNNY   77  64  65 W7        29.84F
$$

ILZ033-039-045-046-055>057-062-063-292300-
EAST-CENTRAL ILLINOIS

CITY           SKY/WX    TMP DP  RH WIND       PRES   REMARKS
CHAMPAIGN      MOSUNNY   78  64  61 W12       29.81S HX  80
DANVILLE*      HVY RAIN  75  65  73 W8        29.77S
RANTOUL*       MOSUNNY   78  67  68 W8        29.80S HX  80
MATTOON        MOSUNNY   78  65  63 W12G21    29.81F HX  80
PARIS*         MOSUNNY   78  66  67 NW12      29.81S HX  80
$$

ILZ079-100>102-292300-
SOUTHWEST ILLINOIS

CITY           SKY/WX    TMP DP  RH WIND       PRES   REMARKS
ALTON          MOSUNNY   79  72  78 NW6       29.86F HX  82
BELLEVILLE     SUNNY     82  67  60 NW7G16    29.84F HX  84
CAHOKIA*       MOSUNNY   84  63  49 NW6       29.85F HX  85
SPARTA*        MOSUNNY   83  65  54 N3        29.87F HX  84
$$

ILZ064>066-069>071-074>076-080>082-084>086-088>090-092>094-292300-
SOUTH-CENTRAL ILLINOIS

CITY           SKY/WX    TMP DP  RH WIND       PRES   REMARKS
CARBONDALE     SUNNY     84  64  50 NW6       29.85F HX  85
CAIRO*         SUNNY     88  63  43 NW10      29.84S HX  89
EFFINGHAM*     MOSUNNY   79  61  53 W9        29.85S HX  80
MARION         MOSUNNY   84  64  51 W12       29.86F HX  86
MT. VERNON     CLOUDY    81  64  57 NW3       29.86F HX  82
CENTRALIA*     MOSUNNY   79  63  57 W9        29.86F HX  81
SALEM*         MOSUNNY   81  64  55 W9        29.86S HX  83
METROPOLIS*    MOSUNNY   85  67  53 NW6       29.85S HX  88
$$

ILZ067-068-072-073-078-083-087-091-292300-
SOUTHEAST ILLINOIS

CITY           SKY/WX    TMP DP  RH WIND       PRES   REMARKS
LAWRENCEVILLE  MOSUNNY   79  65  62 W15       29.82F HX  81
FLORA*         SUNNY     79  62  55 W9        29.85S HX  81
FAIRFIELD*     SUNNY     79  65  62 N6        29.84S HX  81
HARRISBURG*    SUNNY     82  65  56 NW12      29.86S HX  84
ROBINSON*      MOSUNNY   79  65  61 W10       29.82S HX  81
CARMI*         SUNNY     82  58  44 W14       29.84S HX  82
$$

ABBREVIATIONS USED IN REMARKS
   TC - TEMPERATURE IN CELSIUS
  WCI - WIND CHILL INDEX
   HX - HEAT INDEX
  VSB - VISIBILITY
$$



USA.gov is the U.S. government's official web portal to all federal, state and local government web resources and services.